Regional Weather Roundup
Issued by NWS

Home | Current Version | Previous Version | Graphics & Text | Print | Product List | Glossary On
Versions: 1 2 3 4 5 6 7 8 9 10 11 12 13 14 15 16 17 18 19 20 21 22 23 24 25 26 27 28 29 30 31 32 33 34 35 36 37 38 39 40 41 42 43 44 45 46 47 48 49 50
173
ASUS43 KIND 232000
RWRIN

WEATHER ROUNDUP FOR INDIANA
NATIONAL WEATHER SERVICE INDIANAPOLIS IN
400 PM EDT SUN JUL 23 2017

NOTE: "FAIR" INDICATES FEW OR NO CLOUDS BELOW 12,000 FEET WITH NO
SIGNIFICANT WEATHER AND/OR OBSTRUCTIONS TO VISIBILITY.

* - STATION DOES NOT REPORT WEATHER SUCH AS PRECIPITATION OR FOG.

+ - STATION NOT QUALITY CONTROLLED BY THE NATIONAL WEATHER SERVICE.
    USE DATA WITH CAUTION...ESPECIALLY DEWPOINT AND RELATIVE
    HUMIDITY OBSERVATIONS.

INZ001>003-010>013-019-020-232100-
NORTHWEST INDIANA

CITY           SKY/WX    TMP DP  RH WIND       PRES   REMARKS
GARY /AIRPORT/ MOSUNNY   88  66  48 VRB7      29.78F
MICHIGAN CITY+ SUNNY     84  68  58 N9        29.79S
MONTICELLO +   PTSUNNY   85  74  70 NW20G25   29.78S
RENSSELAER +   MOSUNNY   86  68  54 W12G18    29.79F

$$

LMZ046-743>745-232100-
SOUTHERN LAKE MICHIGAN

STATION/POSITION TIME  TEMP    WIND        PRES    WAVE
                       AIR SEA DIR/SP/G            HT
                 (UTC) (F)     (DEG/KT/KT) (MB)    (FT)
BURNS HARBOR     1940   84      30/  2/  3 1008.8F
MICHIGAN CITY    1930   81     300/  4/  5   N/A
5NW MICH CITY    1950   79 78  350/  2/  4   N/A     1

$$

INZ004-005-014>016-021>024-232100-
NORTH CENTRAL INDIANA

CITY           SKY/WX    TMP DP  RH WIND       PRES   REMARKS
GOSHEN         PTSUNNY   86  69  56 NW13      29.76F
SOUTH BEND     MOSUNNY   85  66  53 N16G22    29.78F
WARSAW +       MOSUNNY   82  70  65 NW13      29.77S

$$

INZ006>009-017-018-025>027-232100-
NORTHEAST INDIANA

CITY           SKY/WX    TMP DP  RH WIND       PRES   REMARKS
FORT WAYNE     PTSUNNY   85  71  63 W9        29.77F
KENDALLVILLE + MOSUNNY   84  71  65 W7        29.77F

$$

INZ028-029-035-036-043>045-051>053-232100-
WEST CENTRAL INDIANA

CITY           SKY/WX    TMP DP  RH WIND       PRES   REMARKS
LAFAYETTE      SUNNY     85  74  69 W9        29.78F
TERRE HAUTE    MOSUNNY   85  74  69 SW13      29.83S

$$

INZ030>032-037>040-046>048-054>057-064-065-232100-
CENTRAL INDIANA

CITY           SKY/WX    TMP DP  RH WIND       PRES   REMARKS
COLUMBUS       MOSUNNY   84  72  65 W9G18     29.82S
FRANKFORT +    MOSUNNY   86  73  66 NW6       29.82F
INDIANAPOLIS   CLOUDY    71  68  90 W14       29.81R THUNDER
-EAGLE CREEK   CLOUDY    73  67  81 SW9       29.82R THUNDER
KOKOMO +       PTSUNNY   84  72  67 W6        29.80F
MT COMFORT *+  PTSUNNY   84  73  70 W12       29.80F
SHELBYVILLE    PTSUNNY   84  73  69 SW15      29.81S

$$

INZ033-034-041-042-049-050-058-059-232100-
EAST CENTRAL INDIANA

CITY           SKY/WX    TMP DP  RH WIND       PRES   REMARKS
MUNCIE         CLOUDY    85  73  67 W6        29.79F
RICHMOND +     PTSUNNY   79  73  83 W10       29.82F

$$

INZ060-061-067>069-081>083-085>088-232100-
SOUTHWEST INDIANA

CITY           SKY/WX    TMP DP  RH WIND       PRES   REMARKS
EVANSVILLE     MOSUNNY   87  68  52 W6        29.86F
HUNTINGBURG *+ MOSUNNY   84  73  69 SW6       29.86F

$$

INZ062-063-066-070>080-084-089>092-232100-
SOUTH CENTRAL AND SOUTHEAST INDIANA

CITY           SKY/WX    TMP DP  RH WIND       PRES   REMARKS
BLOOMINGTON    MOSUNNY   84  72  67 W10       29.84S
MADISON *+     MOSUNNY   84  64  51 W7        29.86F
SEYMOUR +      PTSUNNY  N/A N/A N/A W14       29.83F

$$





USA.gov is the U.S. government's official web portal to all federal, state and local government web resources and services.